Time,TemperatureF,DewpointF,PressureIn,WindDirection,WindDirectionDegrees,WindSpeedMPH,WindSpeedGustMPH,Humidity,HourlyPrecipIn,Conditions,Clouds,dailyrainin,SoftwareType,DateUTC
2013-03-27 00:01:00,25.8,18.0,29.81,NW,309,1.0,6.0,73,0.00,,,0.02,weatherlink.com 1.10,2013-03-27 04:01:00,
2013-03-27 00:16:00,25.2,18.0,29.81,NNW,334,3.0,7.0,73,0.00,,,0.00,weatherlink.com 1.10,2013-03-27 04:16:00,
2013-03-27 00:31:00,24.5,18.0,29.81,NW,309,2.0,4.0,75,0.00,,,0.00,weatherlink.com 1.10,2013-03-27 04:31:00,
2013-03-27 00:46:00,23.7,18.0,29.81,NW,312,1.0,4.0,77,0.00,,,0.00,weatherlink.com 1.10,2013-03-27 04:46:00,
2013-03-27 01:01:00,22.8,17.0,29.82,NNW,332,1.0,3.0,78,0.00,,,0.00,weatherlink.com 1.10,2013-03-27 05:01:00,
2013-03-27 01:17:00,22.5,17.0,29.82,WNW,300,1.0,3.0,78,0.00,,,0.00,weatherlink.com 1.10,2013-03-27 05:17:00,
2013-03-27 01:32:00,22.0,17.0,29.82,NW,306,1.0,3.0,80,0.00,,,0.00,weatherlink.com 1.10,2013-03-27 05:32:00,
2013-03-27 01:47:00,21.6,16.0,29.82,NW,306,1.0,2.0,80,0.00,,,0.00,weatherlink.com 1.10,2013-03-27 05:47:00,
2013-03-27 02:02:00,21.3,17.0,29.82,NW,325,0.0,2.0,82,0.00,,,0.00,weatherlink.com 1.10,2013-03-27 06:02:00,
2013-03-27 02:17:00,20.9,17.0,29.82,NNE,30,0.0,1.0,83,0.00,,,0.00,weatherlink.com 1.10,2013-03-27 06:17:00,
2013-03-27 02:32:00,20.7,17.0,29.82,NE,35,0.0,3.0,84,0.00,,,0.00,weatherlink.com 1.10,2013-03-27 06:32:00,
2013-03-27 02:47:00,21.1,17.0,29.81,ENE,74,0.0,2.0,84,0.00,,,0.00,weatherlink.com 1.10,2013-03-27 06:47:00,
2013-03-27 03:02:00,22.1,18.0,29.81,NNW,344,4.0,5.0,84,0.00,,,0.00,weatherlink.com 1.10,2013-03-27 07:02:00,
2013-03-27 03:17:00,22.9,19.0,29.81,NE,52,1.0,4.0,84,0.00,,,0.00,weatherlink.com 1.10,2013-03-27 07:17:00,
2013-03-27 03:32:00,21.8,18.0,29.81,ENE,76,1.0,2.0,85,0.00,,,0.00,weatherlink.com 1.10,2013-03-27 07:32:00,
2013-03-27 03:47:00,21.1,18.0,29.80,ENE,76,2.0,3.0,87,0.00,,,0.00,weatherlink.com 1.10,2013-03-27 07:47:00,
2013-03-27 04:02:00,20.7,18.0,29.80,ENE,71,0.0,1.0,88,0.00,,,0.00,weatherlink.com 1.10,2013-03-27 08:02:00,
2013-03-27 04:17:00,20.2,18.0,29.80,ENE,71,0.0,2.0,89,0.00,,,0.00,weatherlink.com 1.10,2013-03-27 08:17:00,
2013-03-27 04:32:00,20.1,18.0,29.80,ENE,71,0.0,2.0,91,0.00,,,0.00,weatherlink.com 1.10,2013-03-27 08:32:00,
2013-03-27 04:47:00,20.0,18.0,29.80,ENE,71,0.0,1.0,91,0.00,,,0.00,weatherlink.com 1.10,2013-03-27 08:47:00,
2013-03-27 05:02:00,19.7,18.0,29.81,ENE,71,1.0,2.0,92,0.00,,,0.00,weatherlink.com 1.10,2013-03-27 09:02:00,
2013-03-27 05:17:00,19.8,18.0,29.81,ENE,71,1.0,3.0,93,0.00,,,0.00,weatherlink.com 1.10,2013-03-27 09:17:00,
2013-03-27 05:32:00,19.7,18.0,29.81,ENE,62,0.0,2.0,92,0.00,,,0.00,weatherlink.com 1.10,2013-03-27 09:32:00,
2013-03-27 05:47:00,19.9,18.0,29.81,ENE,61,0.0,3.0,93,0.00,,,0.00,weatherlink.com 1.10,2013-03-27 09:47:00,
2013-03-27 06:02:00,20.1,18.0,29.82,ENE,63,0.0,3.0,92,0.00,,,0.00,weatherlink.com 1.10,2013-03-27 10:02:00,
2013-03-27 06:17:00,20.1,18.0,29.82,ENE,63,0.0,2.0,92,0.00,,,0.00,weatherlink.com 1.10,2013-03-27 10:17:00,
2013-03-27 06:32:00,19.8,18.0,29.82,ENE,63,0.0,1.0,92,0.00,,,0.00,weatherlink.com 1.10,2013-03-27 10:32:00,
2013-03-27 06:47:00,20.2,19.0,29.82,East,81,0.0,3.0,93,0.00,,,0.00,weatherlink.com 1.10,2013-03-27 10:47:00,
2013-03-27 07:02:00,20.6,19.0,29.82,ENE,57,1.0,3.0,92,0.00,,,0.00,weatherlink.com 1.10,2013-03-27 11:02:00,
2013-03-27 07:17:00,20.6,19.0,29.83,ESE,113,1.0,4.0,92,0.00,,,0.00,weatherlink.com 1.10,2013-03-27 11:17:00,
2013-03-27 07:32:00,21.4,20.0,29.84,NE,53,1.0,4.0,93,0.00,,,0.00,weatherlink.com 1.10,2013-03-27 11:32:00,
2013-03-27 07:47:00,23.4,22.0,29.84,NNW,338,3.0,9.0,93,0.00,,,0.00,weatherlink.com 1.10,2013-03-27 11:47:00,
2013-03-27 08:02:00,24.5,22.0,29.84,NNW,327,4.0,8.0,91,0.00,,,0.00,weatherlink.com 1.10,2013-03-27 12:02:00,
2013-03-27 08:17:00,25.9,23.0,29.84,NW,317,5.0,11.0,89,0.00,,,0.00,weatherlink.com 1.10,2013-03-27 12:17:00,
2013-03-27 08:32:00,26.7,23.0,29.84,NNE,27,2.0,10.0,87,0.00,,,0.00,weatherlink.com 1.10,2013-03-27 12:32:00,
2013-03-27 08:47:00,27.1,24.0,29.85,NNW,333,3.0,8.0,86,0.00,,,0.00,weatherlink.com 1.10,2013-03-27 12:47:00,
2013-03-27 09:02:00,28.1,24.0,29.85,ENE,67,4.0,10.0,85,0.00,,,0.00,weatherlink.com 1.10,2013-03-27 13:02:00,
2013-03-27 09:18:00,30.4,25.0,29.85,NNW,339,9.0,9.0,81,0.00,,,0.00,weatherlink.com 1.10,2013-03-27 13:18:00,
2013-03-27 09:33:00,31.7,26.0,29.84,NW,315,5.0,11.0,78,0.00,,,0.00,weatherlink.com 1.10,2013-03-27 13:33:00,
2013-03-27 09:48:00,32.3,26.0,29.85,NNW,344,5.0,15.0,76,0.00,,,0.00,weatherlink.com 1.10,2013-03-27 13:48:00,
2013-03-27 10:03:00,32.8,25.0,29.84,NNW,331,7.0,16.0,74,0.00,,,0.00,weatherlink.com 1.10,2013-03-27 14:03:00,
2013-03-27 10:18:00,33.6,26.0,29.84,SW,222,6.0,12.0,73,0.00,,,0.00,weatherlink.com 1.10,2013-03-27 14:18:00,
2013-03-27 10:33:00,34.9,26.0,29.84,NNW,343,6.0,12.0,69,0.00,,,0.00,weatherlink.com 1.10,2013-03-27 14:33:00,
2013-03-27 10:48:00,36.0,25.0,29.85,North,5,7.0,13.0,64,0.00,,,0.00,weatherlink.com 1.10,2013-03-27 14:48:00,
2013-03-27 11:03:00,36.2,25.0,29.84,NW,323,4.0,14.0,63,0.00,,,0.00,weatherlink.com 1.10,2013-03-27 15:03:00,
2013-03-27 11:18:00,36.5,24.0,29.85,NNW,346,7.0,10.0,61,0.00,,,0.00,weatherlink.com 1.10,2013-03-27 15:18:00,
2013-03-27 11:33:00,36.0,24.0,29.85,NNW,336,6.0,15.0,61,0.00,,,0.00,weatherlink.com 1.10,2013-03-27 15:33:00,
2013-03-27 11:48:00,38.5,24.0,29.85,NE,46,4.0,16.0,56,0.00,,,0.00,weatherlink.com 1.10,2013-03-27 15:48:00,
2013-03-27 12:03:00,37.7,23.0,29.85,NW,321,5.0,15.0,56,0.00,,,0.00,weatherlink.com 1.10,2013-03-27 16:03:00,
2013-03-27 12:18:00,38.3,25.0,29.85,NW,325,3.0,10.0,58,0.00,,,0.00,weatherlink.com 1.10,2013-03-27 16:18:00,
2013-03-27 12:33:00,38.6,24.0,29.85,West,265,7.0,16.0,57,0.00,,,0.00,weatherlink.com 1.10,2013-03-27 16:33:00,
2013-03-27 12:48:00,39.6,24.0,29.85,WSW,239,3.0,13.0,55,0.00,,,0.00,weatherlink.com 1.10,2013-03-27 16:48:00,
2013-03-27 13:03:00,37.9,24.0,29.84,NNW,338,5.0,13.0,57,0.00,,,0.00,weatherlink.com 1.10,2013-03-27 17:03:00,
2013-03-27 13:18:00,37.3,24.0,29.84,North,5,4.0,10.0,58,0.00,,,0.00,weatherlink.com 1.10,2013-03-27 17:18:00,
2013-03-27 13:33:00,37.9,23.0,29.84,NNW,340,8.0,12.0,56,0.00,,,0.00,weatherlink.com 1.10,2013-03-27 17:33:00,
2013-03-27 13:48:00,37.7,22.0,29.84,WNW,293,1.0,13.0,54,0.00,,,0.00,weatherlink.com 1.10,2013-03-27 17:48:00,
2013-03-27 14:03:00,37.6,22.0,29.83,NNE,25,9.0,15.0,54,0.00,,,0.00,weatherlink.com 1.10,2013-03-27 18:03:00,
2013-03-27 14:18:00,37.8,21.0,29.83,NNW,340,4.0,15.0,51,0.00,,,0.00,weatherlink.com 1.10,2013-03-27 18:18:00,
2013-03-27 14:33:00,40.6,22.0,29.83,SSW,213,2.0,16.0,48,0.00,,,0.00,weatherlink.com 1.10,2013-03-27 18:33:00,
2013-03-27 14:48:00,38.2,21.0,29.83,NW,322,9.0,16.0,50,0.00,,,0.00,weatherlink.com 1.10,2013-03-27 18:48:00,
2013-03-27 15:03:00,37.6,21.0,29.83,West,267,2.0,12.0,51,0.00,,,0.00,weatherlink.com 1.10,2013-03-27 19:03:00,
2013-03-27 15:18:00,37.5,20.0,29.83,NNW,327,9.0,15.0,50,0.00,,,0.00,weatherlink.com 1.10,2013-03-27 19:18:00,
2013-03-27 15:33:00,38.9,21.0,29.83,NW,312,7.0,17.0,49,0.00,,,0.00,weatherlink.com 1.10,2013-03-27 19:33:00,
2013-03-27 15:48:00,37.3,21.0,29.83,NW,323,3.0,14.0,53,0.00,,,0.00,weatherlink.com 1.10,2013-03-27 19:48:00,
2013-03-27 16:03:00,39.0,21.0,29.83,NW,315,3.0,18.0,48,0.00,,,0.00,weatherlink.com 1.10,2013-03-27 20:03:00,
2013-03-27 16:18:00,39.8,20.0,29.83,WNW,297,5.0,15.0,46,0.00,,,0.00,weatherlink.com 1.10,2013-03-27 20:18:00,
2013-03-27 16:33:00,40.0,19.0,29.84,North,355,8.0,15.0,43,0.00,,,0.00,weatherlink.com 1.10,2013-03-27 20:33:00,
2013-03-27 16:48:00,38.9,18.0,29.84,NNE,14,12.0,16.0,43,0.00,,,0.00,weatherlink.com 1.10,2013-03-27 20:48:00,
2013-03-27 17:03:00,38.1,19.0,29.84,North,11,9.0,11.0,47,0.00,,,0.00,weatherlink.com 1.10,2013-03-27 21:03:00,
2013-03-27 17:18:00,38.2,19.0,29.84,North,9,9.0,13.0,46,0.00,,,0.00,weatherlink.com 1.10,2013-03-27 21:18:00,
2013-03-27 17:33:00,37.6,18.0,29.84,NW,311,3.0,15.0,46,0.00,,,0.00,weatherlink.com 1.10,2013-03-27 21:33:00,
2013-03-27 17:48:00,37.7,19.0,29.85,North,355,9.0,17.0,47,0.00,,,0.00,weatherlink.com 1.10,2013-03-27 21:48:00,
2013-03-27 18:03:00,37.1,20.0,29.85,SSW,204,2.0,11.0,50,0.00,,,0.00,weatherlink.com 1.10,2013-03-27 22:03:00,
2013-03-27 18:18:00,36.4,21.0,29.86,NW,322,5.0,18.0,55,0.00,,,0.00,weatherlink.com 1.10,2013-03-27 22:18:00,
2013-03-27 18:33:00,35.9,22.0,29.87,NE,46,2.0,11.0,58,0.00,,,0.00,weatherlink.com 1.10,2013-03-27 22:33:00,
2013-03-27 18:49:00,35.3,23.0,29.88,WNW,298,10.0,15.0,60,0.00,,,0.00,weatherlink.com 1.10,2013-03-27 22:49:00,
2013-03-27 19:04:00,34.5,22.0,29.89,NW,319,4.0,12.0,61,0.00,,,0.00,weatherlink.com 1.10,2013-03-27 23:04:00,
2013-03-27 19:19:00,33.9,23.0,29.89,NW,317,6.0,12.0,64,0.00,,,0.00,weatherlink.com 1.10,2013-03-27 23:19:00,
2013-03-27 19:34:00,33.4,23.0,29.89,NNW,346,1.0,8.0,65,0.00,,,0.00,weatherlink.com 1.10,2013-03-27 23:34:00,
2013-03-27 19:49:00,32.8,22.0,29.89,NNE,14,12.0,14.0,65,0.00,,,0.00,weatherlink.com 1.10,2013-03-27 23:49:00,
2013-03-27 20:04:00,32.7,22.0,29.90,NW,321,5.0,12.0,65,0.00,,,0.00,weatherlink.com 1.10,2013-03-28 00:04:00,
2013-03-27 20:19:00,32.3,22.0,29.90,WNW,284,2.0,11.0,67,0.00,,,0.00,weatherlink.com 1.10,2013-03-28 00:19:00,
2013-03-27 20:34:00,32.0,22.0,29.90,North,355,8.0,10.0,68,0.00,,,0.00,weatherlink.com 1.10,2013-03-28 00:34:00,
2013-03-27 20:49:00,31.7,23.0,29.90,North,5,3.0,12.0,70,0.00,,,0.00,weatherlink.com 1.10,2013-03-28 00:49:00,
2013-03-27 21:04:00,31.6,23.0,29.90,North,355,1.0,14.0,71,0.00,,,0.00,weatherlink.com 1.10,2013-03-28 01:04:00,
2013-03-27 21:19:00,31.4,24.0,29.90,NW,323,4.0,17.0,73,0.00,,,0.00,weatherlink.com 1.10,2013-03-28 01:19:00,
2013-03-27 21:34:00,31.4,24.0,29.91,NW,311,7.0,18.0,74,0.00,,,0.00,weatherlink.com 1.10,2013-03-28 01:34:00,
2013-03-27 21:49:00,31.1,24.0,29.90,NNW,347,9.0,16.0,75,0.00,,,0.00,weatherlink.com 1.10,2013-03-28 01:49:00,
2013-03-27 22:04:00,30.8,24.0,29.91,North,351,2.0,12.0,76,0.00,,,0.00,weatherlink.com 1.10,2013-03-28 02:04:00,
2013-03-27 22:19:00,30.6,24.0,29.91,North,360,4.0,12.0,77,0.00,,,0.00,weatherlink.com 1.10,2013-03-28 02:19:00,
2013-03-27 22:34:00,30.6,25.0,29.91,North,5,6.0,16.0,78,0.00,,,0.00,weatherlink.com 1.10,2013-03-28 02:34:00,
2013-03-27 22:49:00,30.6,25.0,29.91,NNE,16,5.0,10.0,79,0.00,,,0.00,weatherlink.com 1.10,2013-03-28 02:49:00,
2013-03-27 23:04:00,30.6,25.0,29.91,NNE,30,7.0,11.0,79,0.00,,,0.00,weatherlink.com 1.10,2013-03-28 03:04:00,
2013-03-27 23:19:00,30.5,25.0,29.91,NE,52,5.0,11.0,79,0.00,,,0.00,weatherlink.com 1.10,2013-03-28 03:19:00,
2013-03-27 23:34:00,30.2,25.0,29.91,North,11,2.0,13.0,80,0.00,,,0.00,weatherlink.com 1.10,2013-03-28 03:34:00,
2013-03-27 23:49:00,30.0,25.0,29.91,ENE,64,3.0,16.0,81,0.00,,,0.00,weatherlink.com 1.10,2013-03-28 03:49:00,